Location: Erfurt
(50.9688°N, 11.0193°E)
Time: 00:18:32
(UTC+01:00)

ISS - Pass Details

Date: 11 November 2017
Orbit: 402 x 407 km, 51.6° (Epoch: 22 November)

Event Time Altitude Azimuth Distance (km) Brightness Sun altitude
Exits shadow 05:09:51 64° 78° (ENE) 451 -3.5 -21.3°
Drops below altitude 10° 05:12:41 10° 95° (E) 1,456 0.2 -20.9°
Sets 05:14:46 0° 96° (E) 2,315 1.6 -20.5°
